This is the latest recevied weather packets stored in our database for station/object SV8FES-1. If no packets are shown the sender has not sent any weather packets the latest 1 day(s).
| Time | Temp. | Humidity | Pressure | Rain* | Wind** | Luminosity | Snow |
|---|---|---|---|---|---|---|---|
| 1778067963 | 22.78° C | 50% | 1016.4 hPa | 0 mm | - | 865 W/m² | - |
| 1778067916 | 22.78° C | 51% | 1016.4 hPa | 0 mm | - | 865 W/m² | - |
| 1778067843 | 22.78° C | 51% | 1016.4 hPa | 0 mm | - | 867 W/m² | - |
| 1778067795 | 22.22° C | 50% | 1016.3 hPa | 0 mm | - | 868 W/m² | - |
| 1778067603 | 22.22° C | 50% | 1016.4 hPa | 0 mm | - | 870 W/m² | - |
| 1778067436 | 22.22° C | 53% | 1016.4 hPa | 0 mm | - | 875 W/m² | - |
| 1778067315 | 22.22° C | 52% | 1016.4 hPa | 0 mm | - | 877 W/m² | - |
| 1778067123 | 22.22° C | 53% | 1016.4 hPa | 0 mm | - | 881 W/m² | - |
| 1778067076 | 22.22° C | 53% | 1016.5 hPa | 0 mm | - | 882 W/m² | - |
| 1778066883 | 22.22° C | 55% | 1016.5 hPa | 0 mm | - | 882 W/m² | - |
| 1778066643 | 21.67° C | 55% | 1016.6 hPa | 0 mm | - | 888 W/m² | - |
| 1778066476 | 21.67° C | 55% | 1016.5 hPa | 0 mm | - | 886 W/m² | - |
| 1778066282 | 21.67° C | 54% | 1016.5 hPa | 0 mm | - | 889 W/m² | - |
| 1778066163 | 22.22° C | 55% | 1016.5 hPa | 0 mm | - | 893 W/m² | - |
| 1778065995 | 22.22° C | 56% | 1016.4 hPa | 0 mm | - | 896 W/m² | - |
| 1778065922 | 22.22° C | 56% | 1016.4 hPa | 0 mm | - | 898 W/m² | - |
| 1778065756 | 22.22° C | 55% | 1016.4 hPa | 0 mm | - | 902 W/m² | - |
| 1778065683 | 22.22° C | 54% | 1016.4 hPa | 0 mm | - | 900 W/m² | - |
| 1778065515 | 22.22° C | 55% | 1016.5 hPa | 0 mm | - | 905 W/m² | - |
| 1778065036 | 22.22° C | 57% | 1016.4 hPa | 0 mm | - | 909 W/m² | - |
| 1778064795 | 22.78° C | 58% | 1016.4 hPa | 0 mm | - | 911 W/m² | - |
| 1778064723 | 22.78° C | 56% | 1016.3 hPa | 0 mm | - | 911 W/m² | - |
| 1778064483 | 22.22° C | 59% | 1016.4 hPa | 0 mm | - | 912 W/m² | - |
| 1778064363 | 22.78° C | 57% | 1016.3 hPa | 0 mm | - | 909 W/m² | - |
| 1778064243 | 22.78° C | 57% | 1016.4 hPa | 0 mm | - | 914 W/m² | - |
* Rain latest hour (hover to see other rain measurements)
** Current wind speed in m/s (hover to see current wind gust speed)